Regional Weather Roundup
Issued by NWS Cleveland, OH

Home | Current Version | Previous Version | Text Only | Print | Product List | Glossary On
Versions: 1 2 3 4 5 6 7 8 9 10 11 12 13 14 15 16 17 18 19 20 21 22 23 24 25 26 27 28 29 30 31 32 33 34 35 36 37 38 39 40 41 42 43 44 45 46 47 48 49 50
000
ASUS41 KCLE 061802
RWRCLE
OHIO REGIONAL WEATHER ROUNDUP
NATIONAL WEATHER SERVICE CLEVELAND, OH
200 PM EDT MON JUL 06 2015

NOTE: "FAIR" INDICATES FEW OR NO CLOUDS BELOW 12,000 FEET WITH NO
SIGNIFICANT WEATHER AND/OR OBSTRUCTIONS TO VISIBILITY.

OHZ001>008-015>018-024>027-034-035-043-044-061900-
   NORTHWEST OHIO

CITY           SKY/WX    TMP DP  RH WIND       PRES   REMARKS
DEFIANCE       MOSUNNY   83  63  50 SW8       30.05S
FINDLAY        SUNNY     81  59  47 SW8       30.05F
TOLEDO EXPRESS SUNNY     82  62  50 SW7       30.04F
TOLEDO EXEC    SUNNY     82  56  40 SW7       30.05F
LIMA           MOSUNNY   80  63  55 W8        30.07S
$$

OHZ009>014-019>023-028>033-038-089-061900-
   NORTHEAST OHIO

CITY           SKY/WX    TMP DP  RH WIND       PRES   REMARKS
CLE-HOPKINS    MOSUNNY   81  62  52 N12       30.06F
CLE-LAKEFRONT  SUNNY     78  67  68 N6        30.04F
CUY CO. ARPT   MOSUNNY   81  63  54 NW12      30.06F
LORAIN-ELYRIA  SUNNY     80  63  55 N8        30.05F
ASHTABULA      MOSUNNY   84  67  56 VRB3      30.05F
AKRON-CANTON   PTSUNNY   83  66  56 VRB3      30.06S
WOOSTER        MOSUNNY   83  66  56 VRB3      30.07F
MANSFIELD      MOSUNNY   82  63  52 W6        30.07F
YOUNGSTOWN     PTSUNNY   81  68  64 SE8       30.05F
$$

OHZ042-051>053-060>062-070>072-077>081-061900-
  SOUTHWEST OHIO

CITY           SKY/WX    TMP DP  RH WIND       PRES   REMARKS
CINC-COVINGTON MOSUNNY   82  66  58 VRB5      30.10S
CINC-LUNKEN    MOSUNNY   82  63  52 VRB3      30.09S
HAMILTON       MOSUNNY   82  65  56 VRB5      30.09F
DAYTON         MOSUNNY   82  63  52 SW9       30.09F
WRIGHT-PAT AFB SUNNY     81  62  51 W8        30.07F
DAYTON GENERAL MOSUNNY   80  62  54 W8        30.08F
WILMINGTON     SUNNY     80  59  48 W9        30.09F
$$

OHZ036-037-039>041-045>050-054>059-063>069-073>076-082>088-061900-
  CENTRAL AND SOUTHEAST OHIO

CITY           SKY/WX    TMP DP  RH WIND       PRES   REMARKS
COLUMBUS       MOSUNNY   82  64  54 VRB3      30.05F
OSU AIRPORT    PTSUNNY   82  64  54 SW5       30.06F
BOLTON FIELD   PTSUNNY   81  66  61 SW7       30.08S
RICKENBACK AFB NOT AVBL
NEWARK         MOSUNNY   83  65  54 NW5       30.06F
MARION         PTSUNNY   81  63  54 VRB6      30.07F
LANCASTER      MOSUNNY   82  66  58 NW3       30.07F
ZANESVILLE     NOT AVBL
NEW PHILLY     MOSUNNY   82  69  64 VRB3      30.05F
$$


USA.gov is the U.S. government's official web portal to all federal, state and local government web resources and services.